Location: Kott?ru
(16.6209°N, 80.6208°E)
Time: 16:52:12
(UTC+00:00)

CZ-2C R/B - Pass Details

Date: 18 September 2020
Orbit: 669 x 783 km, 98.2° (Epoch: 20 October)

Event Time Altitude Azimuth Distance (km) Brightness Sun altitude
Rises 23:20:47 0° 347° (NNW) 3,249 5.7 -16.5°
Reaches altitude 10° 23:23:44 10° 330° (NNW) 2,329 4.8 -15.8°
Enters shadow 23:26:48 18° 293° (WNW) 1,818 3.9 -15.0°
